Date String (YYYY-MM-DD hh:mm:ss) UTC,Instrument flags,absolute air pressure of the measurement (hPa),sample flow rate (lpm),inlet stack bypass flow (lpm),air temperature of the measurement (°C),ambient temperature measured by the external sensor (°C),aerosol sample conditioner tube jacket temperature (°C),OPC LED temperature (°C),internal box temperature (°C),relative humidity of the measurement (%),span deviation,mass concentration of particles derived from Lorenz-Mie calculation of OPC scattering (μg/m³),mass concentration of particles derived from Lorenz-Mie calculation of OPC scattering (μg/m³),mass concentration of particles derived from Lorenz-Mie calculation of OPC scattering (μg/m³)
DateTimeUTC,F1_M11,P_M11,Q1_M11,Q2_M11,T1_M11,T2_M11,T3_M11,T4_M11,T5_M11,U1_M11,ZSPAN_M11,X0_M11,X2_M11,X1_M11
2023-08-21 01:00:00,SystemResetWarning,0833.2,4.96,000.00,028.7,025.5,000.0,036.6,029.7,34.4,0001.5,0022.08,0011.29,0010.10
2023-08-21 01:01:00,SystemResetWarning,0833.2,5.02,000.00,028.8,025.9,000.0,036.6,029.8,34.2,0001.9,0020.90,0011.20,0010.04
2023-08-21 01:02:00,SystemResetWarning,0833.2,5.00,000.00,029.0,026.1,000.0,036.6,029.9,34.2,0001.9,0020.25,0011.16,0009.99
2023-08-21 01:03:00,SystemResetWarning,0833.2,4.98,000.00,029.0,025.1,000.0,036.6,029.7,34.0,0001.8,0019.25,0011.07,0009.98
2023-08-21 01:04:00,SystemResetWarning,0833.2,5.01,000.00,029.0,024.3,000.0,036.5,029.5,33.6,0001.5,0019.10,0011.02,0009.95
2023-08-21 01:05:00,SystemResetWarning,0833.2,5.01,000.00,028.9,024.3,000.0,036.5,029.4,33.5,0001.0,0018.45,0010.98,0009.88
2023-08-21 01:06:00,SystemResetWarning,0833.2,5.00,000.00,028.8,024.6,000.0,036.6,029.4,33.8,0001.3,0018.23,0010.94,0009.86
2023-08-21 01:07:00,SystemResetWarning,0833.3,5.00,000.00,028.8,025.1,000.0,036.7,029.5,33.8,0002.0,0019.01,0010.95,0009.83
2023-08-21 01:08:00,SystemResetWarning,0833.3,5.00,000.00,028.8,025.6,000.0,036.7,029.7,33.7,0001.9,0019.40,0010.94,0009.82
2023-08-21 01:09:00,SystemResetWarning,0833.4,5.00,000.00,028.8,026.0,000.0,036.8,029.8,33.7,0001.9,0018.95,0010.90,0009.81
2023-08-21 01:10:00,SystemResetWarning,0833.4,5.00,000.00,028.9,026.1,000.0,036.8,029.9,33.7,0001.7,0018.72,0010.88,0009.78
2023-08-21 01:11:00,SystemResetWarning,0833.3,4.98,000.00,028.9,025.1,000.0,036.7,029.6,33.9,0002.1,0018.48,0010.86,0009.75
2023-08-21 01:12:00,SystemResetWarning,0833.3,5.01,000.00,028.8,024.2,000.0,036.6,029.5,34.1,0001.8,0018.63,0010.88,0009.74
2023-08-21 01:13:00,SystemResetWarning,0833.3,5.01,000.00,028.7,024.3,000.0,036.6,029.4,34.3,0001.6,0019.14,0010.88,0009.77
2023-08-21 01:14:00,SystemResetWarning,0833.4,4.99,000.00,028.6,024.6,000.0,036.7,029.3,34.5,0001.6,0020.13,0010.95,0009.76
2023-08-21 01:15:00,SystemResetWarning,0833.4,5.00,000.00,028.6,025.0,000.0,036.7,029.5,34.7,0001.8,0020.20,0010.98,0009.77
2023-08-21 01:16:00,SystemResetWarning,0833.4,5.00,000.00,028.6,025.5,000.0,036.7,029.7,34.8,0001.9,0020.18,0010.97,0009.76
2023-08-21 01:17:00,SystemResetWarning,0833.4,5.01,000.00,028.6,026.0,000.0,036.7,029.8,34.8,0001.8,0020.12,0010.92,0009.76
2023-08-21 01:18:00,SystemResetWarning,0833.4,4.99,000.00,028.7,026.1,000.0,036.7,029.8,34.8,0001.3,0019.10,0010.90,0009.77
2023-08-21 01:19:00,SystemResetWarning,0833.4,4.99,000.00,028.7,025.0,000.0,036.6,029.6,34.8,0001.3,0018.99,0010.91,0009.78
2023-08-21 01:20:00,SystemResetWarning,0833.4,5.01,000.00,028.6,024.1,000.0,036.6,029.4,34.9,0001.0,0019.24,0010.89,0009.79
2023-08-21 01:21:00,SystemResetWarning,0833.4,5.00,000.00,028.5,024.2,000.0,036.5,029.3,35.2,0001.3,0019.18,0010.86,0009.78
2023-08-21 01:22:00,SystemResetWarning,0833.4,5.03,000.00,028.7,024.5,000.0,036.6,029.4,35.0,0000.9,0018.74,0010.88,0009.79
2023-08-21 01:23:00,SystemResetWarning,0833.4,4.96,000.00,028.9,024.9,000.0,036.6,029.6,34.4,0000.9,0018.63,0010.88,0009.79
2023-08-21 01:24:00,SystemResetWarning,0833.4,5.01,000.00,029.1,025.4,000.0,036.6,029.8,34.0,0000.9,0019.37,0010.88,0009.77
2023-08-21 01:25:00,SystemResetWarning,0833.5,5.01,000.00,029.2,025.9,000.0,036.7,029.9,33.9,0000.9,0019.43,0010.88,0009.78
2023-08-21 01:26:00,SystemResetWarning,0833.4,4.99,000.00,029.3,026.0,000.0,036.8,029.9,33.8,0000.6,0019.81,0010.87,0009.77
2023-08-21 01:27:00,SystemResetWarning,0833.5,4.99,000.00,029.3,024.9,000.0,036.7,029.7,34.0,0000.6,0020.47,0010.87,0009.78
2023-08-21 01:28:00,SystemResetWarning,0833.6,5.01,000.00,029.3,024.0,000.0,036.7,029.6,34.3,0000.5,0020.38,0010.93,0009.79
2023-08-21 01:29:00,SystemResetWarning,0833.4,5.01,000.00,029.2,024.1,000.0,036.7,029.4,34.6,0000.6,0021.13,0010.97,0009.78
2023-08-21 01:30:00,SystemResetWarning,0833.4,4.99,000.00,029.1,024.5,000.0,036.8,029.4,35.0,0001.0,0023.26,0011.00,0009.77
2023-08-21 01:31:00,SystemResetWarning,0833.5,5.02,000.00,029.2,024.9,000.0,036.9,029.6,35.1,0001.2,0023.92,0011.04,0009.76
2023-08-21 01:32:00,SystemResetWarning,0833.4,4.99,000.00,029.5,025.4,000.0,036.9,029.9,35.1,0001.0,0024.90,0011.10,0009.76
2023-08-21 01:33:00,SystemResetWarning,0833.4,5.00,000.00,029.8,025.8,000.0,037.0,030.1,36.1,0001.0,0025.44,0011.09,0009.76
2023-08-21 01:34:00,SystemResetWarning,0833.4,4.99,000.00,030.3,026.0,000.0,037.0,030.4,35.7,0001.0,0026.06,0011.05,0009.77
2023-08-21 01:35:00,SystemResetWarning,0833.4,5.03,000.00,030.7,024.9,000.0,037.0,030.3,34.8,0001.0,0026.14,0011.07,0009.79
2023-08-21 01:36:00,SystemResetWarning,0833.4,4.98,000.00,031.0,024.1,000.0,037.1,030.1,34.3,0001.1,0026.29,0011.08,0009.79
2023-08-21 01:37:00,SystemResetWarning,0833.4,5.01,000.00,031.1,024.2,000.0,037.2,030.0,33.9,0001.0,0026.19,0011.10,0009.79
2023-08-21 01:38:00,SystemResetWarning,0833.5,5.02,000.00,031.0,024.5,000.0,037.4,029.9,34.0,0001.1,0025.43,0011.10,0009.80
2023-08-21 01:39:00,SystemResetWarning,0833.4,5.00,000.00,031.0,025.0,000.0,037.6,030.0,33.9,0001.3,0025.32,0011.05,0009.80
2023-08-21 01:40:00,SystemResetWarning,0833.4,5.00,000.00,031.0,025.4,000.0,037.7,030.1,33.9,0001.4,0024.36,0011.00,0009.78
2023-08-21 01:41:00,SystemResetWarning,0833.5,5.00,000.00,031.0,025.9,000.0,037.9,030.2,34.1,0001.1,0022.22,0011.01,0009.79
2023-08-21 01:42:00,SystemResetWarning,0833.6,5.00,000.00,031.0,026.3,000.0,038.0,030.3,34.0,0001.3,0021.85,0011.05,0009.80
2023-08-21 01:43:00,SystemResetWarning,0833.5,4.98,000.00,031.1,025.8,000.0,038.0,030.3,33.7,0001.6,0020.62,0011.01,0009.81
2023-08-21 01:44:00,SystemResetWarning,0833.4,5.00,000.00,031.0,024.5,000.0,038.0,030.1,32.9,0001.9,0019.90,0010.99,0009.82
2023-08-21 01:45:00,SystemResetWarning,0833.4,5.01,000.00,030.9,024.1,000.0,037.9,029.9,32.7,0002.1,0019.32,0011.03,0009.82
2023-08-21 01:46:00,SystemResetWarning,0833.4,5.01,000.00,030.8,024.3,000.0,038.0,029.8,33.5,0002.2,0019.09,0011.00,0009.81
2023-08-21 01:47:00,SystemResetWarning,0833.4,4.99,000.00,030.6,024.7,000.0,038.1,029.8,33.4,0002.3,0018.24,0010.94,0009.79
2023-08-21 01:48:00,SystemResetWarning,0833.4,5.00,000.00,030.6,025.2,000.0,038.1,030.0,32.9,0002.9,0018.37,0010.93,0009.78
2023-08-21 01:49:00,SystemResetWarning,0833.5,5.00,000.00,030.5,025.6,000.0,038.1,030.1,33.0,0002.9,0018.80,0010.92,0009.78
2023-08-21 01:50:00,SystemResetWarning,0833.6,5.00,000.00,030.5,026.1,000.0,038.2,030.3,33.3,0002.6,0019.36,0010.93,0009.78
2023-08-21 01:51:00,SystemResetWarning,0833.6,4.99,000.00,030.5,026.2,000.0,038.2,030.3,34.0,0002.5,0019.95,0010.97,0009.79
2023-08-21 01:52:00,SystemResetWarning,0833.5,4.99,000.00,030.5,025.2,000.0,038.1,030.1,34.2,0002.7,0019.61,0010.95,0009.79
2023-08-21 01:53:00,SystemResetWarning,0833.6,5.01,000.00,030.4,024.2,000.0,037.9,029.9,34.4,0002.5,0018.98,0010.86,0009.76
2023-08-21 01:54:00,SystemResetWarning,0833.5,5.00,000.00,030.3,024.2,000.0,037.9,029.8,34.7,0002.2,0019.49,0010.81,0009.73
2023-08-21 01:55:00,SystemResetWarning,0833.5,4.98,000.00,030.1,024.5,000.0,037.9,029.8,35.3,0001.9,0020.78,0010.83,0009.71
2023-08-21 01:56:00,SystemResetWarning,0833.5,5.02,000.00,030.2,024.9,000.0,038.0,030.0,35.1,0002.0,0021.65,0010.83,0009.69
2023-08-21 01:57:00,SystemResetWarning,0833.6,4.99,000.00,030.5,025.4,000.0,038.0,030.2,34.6,0002.3,0021.45,0010.89,0009.69
2023-08-21 01:58:00,SystemResetWarning,0833.7,4.99,000.00,030.6,025.8,000.0,038.0,030.4,34.2,0002.2,0021.45,0010.93,0009.69
2023-08-21 01:59:00,SystemResetWarning,0833.7,5.02,000.00,030.7,026.2,000.0,038.0,030.5,33.8,0002.0,0021.82,0010.93,0009.71
